ARIANE 6 R/B, 60239

Orbit data source: Space-Track

ARIANE 6 R/B, 60239 is space debris in LEO originally from a launch on Tue, 09 Jul 2024 UTC via an ARIANE 62 launch vehicle from the French Guiana (FRGUI). Debris objects in space refer to the collection of defunct objects orbiting the Earth. Examples of debris include non-operational satellites, rocket bodies, and fragments generated from explosions, collisions, or faulty payload assembly.

Loading next visibility...
Identifier
60239, 2024-128E
Orbit
LEO
Country
Flag of FRFR
Related business
Manufacturer
ArianeGroup
Mission
Spacecraft
Bus & Motor
ARI6DP, Unknown motor
Mass
~7,711 kg wet, 1,600 kg dry
Launch date (UTC)
2024-07-09 (1 year ago)
Launch vehicle
ARIANE 62
Launch site
French Guiana (FRGUI)
Object type
Payload
Rocket body
Debris
Shape & HBR
Cyl + Trunc Cone, 7.0 m
Radar Cross Section
72.787 m², Large (>1 m²)

Expand to show TLE details & history
Last TLE update: 11 hours ago

TLE from 11 hours ago
0 ARIANE 6 R/B
1 60239U 24128E   25242.88644353  .00002879  00000-0  24376-3 0  9994
2 60239  62.0128 158.7018 0057746  76.3822 284.3690 14.99235251 62481
Epoch: 2025-08-30T21:16Z
TLE epoch observation values (Epoch: 2025-08-30T21:16:28.721Z)
Latitude
0.00004°
Longitude
-139.73216°
Altitude
561.289 km
Speed
7.587 km/s
True Right ascension
10h 34m 48s
True Declination
0° 00' 00"
Sunlit
Object was in daylight at epoch
Visualization orbit readout
Latitude
Unknown
Longitude
Unknown
Altitude
Unknown
Speed
Unknown
Apparent Right ascension
Unknown
Apparent Declination
Unknown
Sunlit
N/A
Visualization observer readout
Local Sidereal Time
00:21:45
Azimuth
Unknown
Elevation
Unknown
Doppler factor
Unknown
Orbital elements
Apogee altitude
608.299 km
Perigee altitude
528.074 km
Semi-major axis
6,946.324 km
Eccentricity
0.00577
Inclination
62.0128°
RAAN
158.7018°
Arg. of periapsis
76.3822°
True anomaly
283.72684°
Mean anomaly
284.369°
Eccentric anomaly
284.04803°
Mean motion
3.74896 °/min
Orbital period
96.03 mins
BSTAR
0.00024376
Loading maneuver chart data...
Computing Atmospheric mass density...
Loading historical data...
Loading historical data...
Loading historical data...
Loading historical data...
Loading historical data...
Loading historical data...
Loading historical data...

Documentation

Showing up to 5 results
|